User: anonymous   Login
Location: Mentone
(34.5413°N, 85.5351°W)
Time: 13:03:01
(UTC-05:00)
Language:

Okean O Rocket - Orbit

View from above orbital plane
View from above orbital plane
View from above satellite
View from above satellite

Ground track
Ground track

The orbit data is extracted from the following two-line orbital elements,

1 25861U 99039B   14296.82157264  .00000935  00000-0  13713-3 0  7723
2 25861 097.9674 254.1431 0014614 324.2687 092.0341 14.77824344822863
Epoch (UTC): 23 October 2014 19:43:03
Eccentricity: 0.0014614
inclination: 97.9674°
perigee height: 626 km
apogee height: 646 km
right ascension of ascending node: 254.1431°
argument of perigee: 324.2687°
revolutions per day: 14.77824344
mean anomaly at epoch: 92.0341°
orbit number at epoch: 82286

The dashed part of the orbit path shows where the satellite is in the earth's shadow,  

DLR